Date,TemperatureHighF,TemperatureAvgF,TemperatureLowF,DewpointHighF,DewpointAvgF,DewpointLowF,HumidityHigh,HumidityAvg,HumidityLow,PressureMaxIn,PressureMinIn,WindSpeedMaxMPH,WindSpeedAvgMPH,GustSpeedMaxMPH,PrecipitationSumIn
2013-9-1,84,72,65,71,66,64,99,85,59,0.00,40.00,2,0,7,0.01
2013-9-2,79,67,63,72,66,62,99,94,77,0.00,40.00,2,0,8,0.95
2013-9-3,73,64,56,65,59,55,99,84,61,0.00,40.00,3,1,13,0.25
2013-9-4,71,61,56,61,58,54,98,89,67,0.00,40.00,3,1,12,0.06
2013-9-5,67,55,42,55,46,38,98,77,35,0.00,40.00,2,0,9,0.02
2013-9-6,71,53,36,50,42,35,98,72,38,0.00,40.00,3,1,16,0.01
2013-9-7,72,62,57,59,53,-100,95,75,61,0.00,40.00,3,2,15,0.01
2013-9-8,66,56,42,58,49,41,98,81,43,0.00,40.00,2,1,10,0.36
2013-9-9,70,52,38,58,45,37,98,82,42,0.00,40.00,2,0,11,0.01
2013-9-10,74,63,52,71,62,51,99,96,87,0.00,40.00,1,0,4,0.56
2013-9-11,91,78,65,74,71,65,99,79,54,0.00,40.00,3,1,16,0.95
2013-9-12,74,69,62,70,68,61,99,95,83,0.00,40.00,3,1,12,3.02
2013-9-13,63,54,49,62,53,48,98,94,79,0.00,40.00,1,0,9,0.14
2013-9-14,65,51,44,48,44,-100,98,83,51,0.00,40.00,2,0,9,0.08
2013-9-15,68,54,44,54,49,43,98,84,60,0.00,40.00,2,1,12,0.02
2013-9-16,60,50,37,53,45,36,97,85,48,0.00,40.00,2,1,9,0.35
2013-9-17,67,48,32,49,40,32,98,79,39,0.00,40.00,2,0,8,0.01
2013-9-18,48,40,38,47,39,37,98,98,97,0.00,40.00,0,0,0,0.00
2013-9-19,79,57,41,59,50,40,98,82,43,0.00,40.00,2,0,10,0.00
2013-9-20,85,63,51,63,56,50,99,82,41,0.00,40.00,2,0,10,0.00
2013-9-21,73,65,59,66,58,-100,98,81,62,0.00,40.00,3,1,12,0.96
2013-9-22,59,52,42,58,50,41,98,93,72,0.00,40.00,2,1,11,1.01
2013-9-23,51,45,36,45,41,35,98,88,67,0.00,40.00,1,0,6,0.01
2013-9-24,66,50,37,48,43,36,98,81,48,0.00,40.00,3,1,11,0.01
2013-9-25,72,53,38,54,46,37,98,82,45,0.00,40.00,1,0,7,0.00
2013-9-26,69,52,39,53,46,38,98,85,51,0.00,40.00,2,0,10,0.00
2013-9-27,70,52,39,56,47,38,98,87,54,0.00,40.00,1,0,8,0.00
2013-9-28,77,54,40,59,47,-100,98,83,47,0.00,40.00,2,0,5,0.00
2013-9-29,79,58,44,54,48,43,98,78,33,0.00,40.00,3,1,12,0.00
2013-9-30,80,58,47,58,50,46,98,81,34,0.00,40.00,1,0,7,0.00